Wind_Speed
3 6 2 1 1 2 4 5 6 3 0 0 1 2 2 0 5 4 2 4 6 5 5 7 9 10 13 14 15 16 16 15 14 12 12 11 10 10 9 8 10 15 19 22 24 25 25 26 27 27 27 29 32 31 32 34 34 34 35 36 36 36 35
5 7 1 4 7 3 3 5 5 4 2 1 0 3 3 5 7 3 3 6 5 2 2 6 10 12 14 15 14 15 15 15 14 13 13 13 13 11 10 10 9 12 17 22 25 24 23 25 27 28 29 30 33 33 32 33 32 32 34 36 35 35 35
3 6 1 3 7 7 2 1 2 2 2 3 2 2 5 8 7 4 4 6 4 3 2 6 10 12 13 13 13 13 15 16 14 13 14 14 14 13 11 10 8 9 14 19 21 22 22 24 24 25 27 29 30 30 30 31 32 34 36 35 32 34 36
2 4 4 2 5 5 1 1 1 1 1 2 2 1 2 5 5 5 5 4 3 4 4 6 8 11 12 12 12 12 14 14 13 13 14 14 14 13 12 12 10 5 11 17 21 22 21 22 23 24 26 27 27 28 28 28 29 31 32 30 29 32 33
0 2 6 5 5 5 2 1 2 2 2 1 2 1 2 1 4 5 6 5 4 3 5 6 8 9 10 11 11 10 11 13 13 13 14 13 14 14 14 14 13 10 4 5 14 21 23 22 22 22 23 25 25 25 26 26 26 26 27 26 26 28 29
4 5 3 4 6 7 6 4 3 2 2 1 4 4 1 1 0 2 4 5 4 3 5 7 9 8 9 10 11 9 10 12 13 13 14 14 14 15 15 15 14 15 16 14 8 3 11 17 20 22 21 22 23 23 22 23 24 24 26 25 24 26 27
4 5 3 3 4 4 5 7 5 3 2 2 2 4 3 2 1 1 2 4 4 3 5 6 7 8 8 9 10 10 10 12 12 13 14 14 14 15 15 15 15 16 19 20 21 19 14 6 7 18 21 20 21 18 14 16 17 18 20 19 20 24 27
1 4 4 1 3 1 2 6 7 5 3 2 2 1 1 2 2 1 2 4 4 3 5 6 6 7 7 8 10 10 10 10 11 13 14 13 14 15 16 15 16 19 22 22 22 22 21 20 13 1 11 19 23 22 22 22 17 16 18 17 16 19 23
3 4 5 3 1 3 3 4 7 8 7 4 1 1 0 2 2 1 2 4 5 5 5 5 6 7 8 9 9 10 10 10 11 11 12 12 13 14 16 17 17 19 21 21 21 20 19 20 21 17 7 10 22 29 31 29 24 24 28 25 20 20 22
3 2 2 2 1 2 2 3 6 8 9 8 2 1 1 2 2 1 1 4 7 7 5 6 6 7 8 9 9 9 10 10 11 11 11 12 12 13 15 16 16 17 18 20 21 21 21 20 20 20 18 8 7 19 24 24 24 29 33 29 24 23 23
2 3 3 2 1 2 2 4 7 7 8 8 3 0 1 2 5 3 4 5 10 8 5 5 5 6 7 8 8 9 9 10 11 11 11 12 12 12 13 13 14 15 17 20 22 22 21 21 20 19 19 18 11 2 7 12 18 24 28 26 23 23 24
6 5 5 2 1 3 3 4 5 5 7 8 5 4 3 0 2 4 3 5 9 7 4 4 4 5 6 7 8 8 9 9 10 10 11 13 13 13 14 14 16 16 15 17 21 22 21 21 21 20 19 18 17 13 8 1 7 14 19 23 23 22 23
6 5 5 3 2 3 1 2 3 4 6 6 5 5 3 3 2 6 6 6 7 6 4 4 4 4 5 6 7 7 8 9 10 11 12 14 15 15 16 16 16 15 14 15 18 20 21 21 22 21 20 19 18 16 14 10 5 2 11 20 24 25 24
6 4 3 3 3 3 2 2 3 3 3 3 2 2 2 2 3 6 7 8 7 6 4 4 4 3 4 4 5 7 9 11 11 12 13 13 14 14 15 15 15 14 14 16 17 19 20 21 22 21 20 20 18 17 15 14 12 8 3 9 18 24 26
4 3 3 3 4 4 2 3 4 2 1 3 2 2 1 0 2 5 9 9 7 4 3 5 4 3 3 4 6 8 9 11 12 13 13 13 13 14 14 14 14 14 15 17 19 20 21 21 21 20 19 19 18 17 16 15 14 12 9 6 7 15 22
3 1 3 4 3 1 3 5 6 6 4 4 4 4 3 1 2 6 8 7 5 5 5 5 4 3 3 4 6 7 7 10 11 12 13 13 13 13 13 13 14 14 15 17 19 20 21 21 21 20 19 19 19 19 18 17 15 14 11 9 7 6 12
3 1 3 4 1 3 4 4 5 5 4 4 4 5 5 3 1 2 3 4 6 7 6 5 4 2 2 3 4 5 6 8 9 10 11 12 13 13 13 13 13 14 15 16 18 19 19 19 20 19 19 19 19 20 21 19 15 15 14 10 8 7 6
3 1 2 2 3 3 3 4 3 3 3 2 1 2 3 2 1 2 5 6 6 6 4 4 3 1 1 1 2 4 5 6 7 9 10 11 11 12 12 12 13 14 16 17 17 18 18 18 19 18 18 19 18 20 22 19 15 16 17 13 10 10 8
2 1 1 3 3 1 3 2 2 2 1 1 2 1 2 2 1 4 7 7 5 4 3 3 2 2 1 2 3 4 6 6 7 8 8 10 11 11 11 12 14 16 17 18 19 19 18 18 18 18 19 20 20 20 19 17 17 18 17 13 12 12 11
1 2 3 3 0 2 1 1 1 1 2 1 2 2 4 4 1 2 5 6 5 4 3 2 2 4 2 4 5 3 5 7 7 8 8 9 10 11 11 13 15 16 17 17 19 20 19 18 17 18 19 20 21 21 18 16 19 20 16 12 13 14 14
1 1 1 0 1 1 3 2 2 1 2 2 0 1 3 4 2 2 3 4 4 3 2 2 3 4 2 5 5 3 4 8 8 8 9 9 9 11 12 13 15 16 16 17 17 18 19 18 17 17 19 19 19 20 18 16 18 18 14 13 13 15 15
1 1 1 1 2 3 4 5 4 2 1 2 1 1 1 3 2 2 3 3 3 2 2 4 5 4 3 4 4 3 4 8 8 9 10 10 11 11 12 14 15 16 17 17 17 17 17 18 17 18 20 19 18 18 18 17 17 15 12 13 15 15 16
2 2 1 2 3 1 3 6 6 4 3 3 2 3 2 3 3 2 3 3 3 2 3 5 5 3 3 2 3 3 8 11 10 10 10 11 12 12 13 14 15 16 17 17 17 16 16 17 19 19 19 19 17 16 16 17 17 15 13 13 15 17 18
2 2 2 2 2 0 3 6 7 5 4 4 3 3 2 5 4 2 3 2 2 2 3 4 3 2 3 3 3 6 10 12 11 12 12 12 13 13 13 14 15 16 17 16 17 17 16 16 18 19 19 18 17 16 16 16 16 16 15 16 16 17 19
2 3 2 2 2 1 4 7 7 6 5 5 3 1 3 6 5 3 3 2 1 1 1 2 2 2 3 6 8 10 11 11 12 13 13 14 15 15 15 15 15 16 16 16 16 17 17 16 16 17 18 17 17 17 16 16 15 15 17 18 18 17 18
1 2 2 3 3 1 5 7 6 5 4 3 1 2 4 6 6 5 4 3 2 3 3 3 4 5 6 8 9 10 10 11 12 14 15 15 16 17 17 15 14 15 17 17 18 17 17 16 15 15 16 17 18 18 17 17 17 17 18 19 19 19 18
1 1 2 2 2 2 8 9 6 4 4 1 3 4 4 5 5 5 5 4 3 3 4 5 6 7 8 9 9 10 10 10 12 14 15 16 17 19 19 18 16 16 17 19 20 19 17 16 15 14 15 16 16 16 18 20 19 19 19 18 19 19 19
3 3 4 2 1 2 7 7 4 3 3 3 4 4 3 5 6 5 4 4 5 5 5 6 7 7 8 9 9 10 10 10 12 14 15 16 18 18 20 21 19 17 17 19 21 21 18 16 15 14 14 15 16 16 18 21 21 20 20 20 18 18 18
4 3 2 1 2 1 5 4 1 4 5 4 4 3 3 4 5 5 4 5 5 6 6 7 7 7 8 9 10 10 11 11 13 14 15 17 18 18 19 21 21 19 18 19 21 23 21 18 16 15 13 14 17 18 18 20 21 21 20 20 20 18 17
3 5 5 4 3 4 6 6 3 3 3 2 3 4 4 4 4 5 5 5 5 5 6 6 6 7 8 8 10 11 11 12 14 16 17 17 18 19 19 19 20 20 20 20 20 23 23 20 17 15 14 14 17 20 20 19 20 20 19 20 20 19 18
3 4 4 6 7 7 7 7 6 5 5 4 4 5 5 4 4 5 6 6 6 5 6 7 8 9 9 9 10 10 10 12 15 17 18 18 18 19 19 19 20 20 20 21 21 22 24 22 17 15 15 16 17 19 20 20 20 19 18 18 19 19 19
5 4 1 2 4 5 6 6 6 6 7 6 6 7 6 5 5 6 7 6 6 5 6 7 9 10 10 10 11 11 11 12 14 17 18 19 19 20 19 20 20 20 20 21 22 23 25 24 19 16 17 18 18 19 20 20 20 19 18 18 18 18 19
6 7 7 6 5 6 8 10 9 8 7 6 7 7 6 6 7 7 7 7 7 7 7 8 9 10 10 11 12 12 12 13 15 18 20 20 20 20 20 21 22 22 21 22 23 25 26 26 23 19 19 19 19 19 19 19 18 18 19 19 18 18 18
6 6 6 7 5 6 6 8 10 10 9 7 7 7 6 7 8 7 8 8 8 8 9 9 9 9 9 11 13 14 13 15 18 20 21 21 22 23 23 23 24 24 24 24 25 26 27 27 25 22 20 20 18 17 17 17 17 18 19 19 19 18 16
7 7 5 6 5 6 4 4 6 7 7 7 8 8 7 8 8 7 7 7 7 8 9 10 10 10 10 13 15 15 15 18 21 22 22 23 24 25 25 25 25 26 26 25 26 27 27 27 26 25 22 20 19 17 16 17 17 19 19 19 19 18 16
8 9 7 5 6 7 4 2 4 5 5 7 8 8 7 7 7 7 7 7 8 8 8 9 11 12 13 15 15 16 18 21 23 25 26 26 27 27 26 25 25 25 25 26 27 28 27 27 27 26 24 23 20 18 17 18 18 19 19 18 18 18 18
9 8 3 5 8 8 2 1 2 4 6 7 7 7 7 7 7 7 7 7 9 9 8 9 12 13 14 16 17 19 21 23 25 26 27 27 27 26 26 25 25 25 26 26 26 27 27 27 28 28 28 26 23 20 19 19 19 20 20 19 19 20 20
Wind_Direction
36 3 334 18 11 182 152 171 189 174 317 288 140 137 45 207 173 143 129 119 107 138 123 50 30 26 23 21 23 22 16 14 20 22 15 5 356 345 323 281 233 208 196 196 201 200 198 196 194 194 193 192 194 195 197 200 203 205 206 209 211 212 213
26 356 256 106 38 11 168 173 162 109 62 318 218 158 154 191 186 143 108 125 115 167 155 33 22 22 20 19 21 21 18 17 20 19 12 5 357 347 335 320 277 228 204 200 204 203 200 198 196 195 194 195 198 198 197 198 199 201 205 207 209 210 212
5 360 242 137 32 18 37 133 117 110 184 188 186 182 178 187 180 127 114 122 82 43 3 5 17 20 16 17 18 18 20 19 17 15 10 7 2 357 351 340 306 244 214 204 205 206 203 200 198 198 196 196 198 199 198 198 199 202 206 206 205 208 211
294 15 34 25 358 9 60 119 83 9 278 190 182 199 191 193 176 140 147 157 100 51 343 345 28 26 14 19 18 17 22 19 17 15 9 8 7 5 1 354 345 285 218 206 206 208 205 201 198 198 197 197 200 199 199 200 201 203 205 203 202 206 208
186 65 43 36 17 16 32 96 68 31 338 266 154 80 11 238 180 156 165 161 109 51 342 7 45 33 17 22 19 18 24 19 19 17 11 10 9 9 10 6 8 13 10 212 213 213 210 205 198 196 198 200 201 202 200 200 199 200 201 201 201 204 204
82 97 65 38 35 31 39 52 36 358 334 203 184 176 121 19 154 165 170 149 105 32 356 26 44 34 23 22 18 21 23 18 19 16 11 12 10 10 13 14 17 23 26 28 18 256 219 211 198 192 196 197 198 201 201 201 203 203 202 202 202 204 205
75 121 128 35 27 30 50 51 34 4 356 341 232 189 147 103 86 88 113 115 100 38 12 33 43 35 28 23 19 23 23 19 20 17 13 12 11 12 15 18 23 25 29 32 29 26 18 351 206 194 193 189 192 194 191 199 210 210 208 209 207 206 207
111 182 199 349 14 13 60 43 26 19 14 355 340 359 101 129 122 137 142 125 114 74 35 39 49 41 35 31 24 24 25 22 20 19 16 13 12 14 16 18 23 26 29 32 29 26 23 18 17 319 190 181 184 190 190 195 203 208 213 220 221 214 211
154 193 208 195 102 43 50 34 14 18 22 15 6 323 322 116 59 322 172 136 116 101 71 49 50 47 41 36 28 28 30 25 21 21 19 16 14 14 16 18 22 24 27 28 25 23 22 22 22 18 30 162 180 189 193 194 195 202 209 212 215 216 215
179 176 154 152 108 27 47 27 11 19 20 11 3 209 170 128 114 341 59 119 126 121 98 65 51 44 40 33 24 28 30 25 25 24 21 20 18 16 16 17 20 23 24 22 21 21 21 22 22 21 22 37 172 191 195 194 196 205 209 207 209 212 212
85 105 86 56 7 31 62 22 14 22 16 2 351 200 63 118 127 91 55 108 134 136 115 84 61 42 37 26 19 24 24 20 22 23 23 25 23 20 19 18 19 21 20 19 17 17 18 19 19 21 23 24 28 74 196 201 206 211 211 210 215 217 213
72 86 89 82 47 54 43 12 10 17 14 7 18 65 62 13 132 113 109 130 134 134 122 96 72 53 44 27 18 19 17 16 18 19 22 24 22 21 20 19 19 17 14 14 14 14 14 14 15 19 21 20 21 25 28 39 217 220 216 214 218 218 215
86 82 81 71 48 51 32 339 353 2 12 21 38 63 49 333 39 108 149 160 133 128 127 108 81 63 53 35 19 13 15 19 19 20 22 22 20 18 17 17 16 13 11 8 7 8 10 12 13 14 15 14 12 13 17 20 18 259 222 219 219 218 215
93 66 47 35 18 12 350 343 355 345 360 27 43 45 12 344 56 102 143 146 125 124 129 117 101 73 63 53 31 21 21 20 19 22 22 21 19 17 15 14 10 8 8 5 3 4 6 9 10 8 7 7 6 6 6 8 11 8 318 233 224 220 218
98 41 360 5 358 354 10 41 52 65 100 95 100 100 104 207 93 119 142 139 129 141 142 126 119 92 76 66 47 37 29 20 19 21 18 16 15 14 13 10 5 5 4 2 3 4 3 3 4 3 0 358 360 2 2 1 1 0 356 331 261 232 226
117 50 331 348 4 59 111 83 68 72 87 89 85 85 76 60 102 133 151 153 146 155 154 139 129 108 80 62 48 44 37 26 22 20 15 11 8 6 7 5 3 3 1 359 360 360 360 359 358 357 354 352 355 357 356 357 355 355 357 353 339 288 246
141 143 316 333 323 176 150 101 68 54 55 66 91 90 64 31 27 133 144 124 123 141 152 146 136 122 72 50 45 43 37 28 26 21 14 9 5 2 2 359 359 359 355 354 355 353 354 355 354 353 350 347 348 351 356 359 352 351 357 356 355 348 300
151 173 313 295 223 201 131 91 54 1 353 5 58 73 55 33 338 47 77 93 104 122 133 125 112 83 9 94 86 61 42 27 23 18 11 6 1 359 358 356 356 354 348 347 349 349 349 349 347 347 348 346 342 345 354 358 350 351 356 355 356 0 349
145 162 222 213 207 146 89 63 3 332 295 284 287 342 66 114 131 91 94 99 101 96 82 76 58 360 309 185 152 93 54 32 18 11 6 1 357 353 352 352 350 349 346 343 343 343 344 344 342 343 345 346 342 342 348 350 349 353 356 355 356 359 360
138 163 193 202 151 55 50 321 355 119 127 150 221 174 104 95 92 104 103 100 104 105 89 75 359 323 287 177 164 119 49 27 13 4 358 352 349 346 344 344 343 343 343 342 339 337 336 337 339 340 341 342 339 338 341 346 350 353 353 354 358 356 355
168 173 174 95 55 204 198 151 103 112 87 72 302 209 111 99 76 91 110 104 97 92 88 57 345 313 238 182 178 163 34 15 3 354 348 341 337 336 334 334 335 335 336 337 334 332 331 332 336 337 337 337 335 334 336 341 346 349 350 352 353 350 348
181 200 148 150 190 199 173 151 137 129 97 94 73 282 148 128 115 107 123 117 87 51 36 14 347 310 237 197 171 156 2 356 348 340 337 333 331 330 328 327 328 330 331 331 329 328 328 330 333 334 333 333 331 331 334 337 338 341 348 350 347 342 337
178 212 207 189 198 157 136 156 160 164 180 175 197 252 207 142 138 149 145 124 88 48 17 3 354 326 274 236 121 52 345 337 335 332 329 326 325 324 323 323 323 325 325 322 322 325 326 327 330 330 329 329 328 326 329 332 332 334 341 344 341 336 333
172 205 234 236 243 184 140 162 163 156 166 177 209 257 190 153 165 176 151 131 91 47 3 349 344 330 301 301 334 342 329 322 321 323 322 321 320 319 318 319 319 319 319 317 318 322 323 322 325 327 327 324 322 322 324 325 325 327 332 334 332 331 332
190 209 237 263 267 227 156 168 168 155 161 188 228 278 128 154 175 174 162 163 156 175 307 315 302 299 302 300 306 313 313 313 316 316 315 315 314 313 312 314 315 314 314 313 312 314 317 317 318 322 325 321 316 317 318 316 317 320 323 326 327 327 328
186 214 250 275 276 205 138 145 152 164 187 208 207 86 123 159 171 172 188 203 196 213 251 271 272 286 295 294 297 303 307 310 311 311 312 312 311 312 311 310 310 310 310 310 308 308 311 313 312 315 320 316 311 312 311 308 311 316 317 319 322 324 324
148 184 213 254 304 123 140 141 147 194 225 142 105 128 161 179 179 184 203 214 217 231 256 270 273 283 291 291 293 297 300 302 303 305 308 308 307 309 310 308 310 310 306 305 305 305 307 309 308 309 312 309 305 303 302 303 308 313 315 315 316 319 320
176 179 191 216 352 139 167 165 155 180 174 120 130 166 182 186 196 207 212 215 223 238 257 272 277 280 284 287 293 295 295 299 301 300 302 302 302 303 304 304 306 306 302 300 300 301 303 304 303 302 302 302 300 295 294 300 307 309 311 313 313 314 314
205 231 221 220 1 227 207 223 160 136 139 135 161 197 199 190 198 210 223 230 231 236 252 266 272 273 276 282 290 294 295 298 300 299 299 298 297 298 298 299 301 301 298 296 296 297 298 300 299 295 292 295 295 292 292 298 302 303 306 310 310 309 308
242 262 239 217 246 243 227 236 231 169 158 165 183 205 216 207 201 203 221 245 250 248 257 266 269 273 278 282 286 289 292 294 296 297 297 295 294 294 293 294 296 298 297 295 293 293 294 296 295 290 286 288 290 291 293 295 296 296 299 302 305 305 303
218 241 203 200 230 233 222 229 235 232 236 222 199 212 222 218 216 215 221 239 251 256 262 268 274 281 285 287 288 288 288 291 294 296 295 294 293 291 291 292 293 293 293 292 290 290 292 293 292 286 283 285 287 290 292 293 292 293 292 292 296 300 299
218 249 228 204 243 248 238 238 241 242 239 216 196 209 222 226 232 227 222 227 235 246 256 263 272 281 286 289 291 292 292 293 294 294 293 292 291 290 289 290 289 287 286 286 287 288 288 289 290 285 281 283 286 288 289 291 291 289 288 287 289 292 295
231 262 257 233 246 260 243 231 231 235 236 219 204 207 218 229 235 231 223 221 226 237 252 262 270 276 282 286 289 292 296 298 296 293 291 290 290 289 290 290 288 285 282 282 283 284 284 286 288 284 280 281 283 282 283 286 287 285 285 287 286 286 289
229 247 231 202 222 263 243 214 220 225 223 221 220 215 214 221 226 230 232 232 230 235 246 257 264 269 274 282 287 291 294 295 295 293 292 292 291 292 292 291 288 284 282 280 280 280 281 283 285 283 280 279 278 275 276 280 282 282 283 286 286 285 284
243 251 228 183 202 261 263 198 205 212 199 200 213 218 219 223 225 228 236 245 248 247 247 252 259 268 276 283 288 291 291 292 294 294 294 294 294 294 293 290 287 284 283 281 280 279 279 280 281 281 280 278 275 272 271 275 277 277 277 278 280 281 280
249 258 245 187 198 242 254 180 191 196 178 187 207 216 219 223 230 232 235 246 255 259 261 261 264 273 282 286 290 290 290 294 296 296 295 294 293 292 291 287 285 283 282 280 279 279 279 278 278 280 280 278 275 272 272 273 274 273 271 270 270 272 274
241 252 223 168 211 239 248 114 212 202 181 188 208 220 217 219 228 230 229 239 248 254 262 269 274 278 281 285 290 291 293 296 296 295 295 293 292 291 288 285 282 280 279 278 277 276 276 276 276 278 279 277 275 273 271 270 269 267 266 265 265 268 270
Height
783 784 783 779 782 784 785 785 789 788 779 780 796 806 802 797 803 813 817 819 820 819 817 810 808 812 809 807 806 803 802 800 795 794 792 790 788 785 782 778 775 774 775 779 780 782 785 788 792 795 798 800 802 805 809 811 815 817 820 822 825 828 830
783 782 781 779 779 779 782 785 783 781 782 784 790 803 810 805 809 819 820 822 826 827 825 816 812 816 815 812 810 808 807 803 800 798 795 793 790 786 784 779 775 773 774 776 777 780 784 786 789 791 794 797 800 803 806 808 812 814 817 820 822 825 827
786 780 780 783 780 777 780 782 778 782 791 793 794 803 809 806 812 824 828 827 829 832 831 825 821 822 820 817 814 813 811 808 805 802 798 796 792 788 785 780 776 773 773 775 776 780 783 785 787 790 792 796 798 801 804 806 809 811 814 817 819 822 824
788 785 788 799 797 784 779 780 780 784 788 790 793 795 794 797 811 825 830 832 833 834 833 829 826 824 821 821 819 816 814 812 809 805 802 798 795 791 788 783 777 772 771 774 776 778 781 782 785 788 791 794 797 800 803 805 808 810 812 815 817 820 822
791 799 805 812 809 798 790 789 791 794 792 789 790 794 795 795 804 814 821 831 837 833 830 828 825 824 823 822 821 818 816 813 811 809 805 802 799 795 791 787 781 776 773 774 775 776 779 780 783 786 789 793 796 799 801 804 807 809 812 815 816 818 821
804 813 814 811 809 807 802 802 805 806 802 796 792 800 805 800 802 806 807 824 840 834 829 828 825 824 824 823 822 819 817 814 813 811 809 806 804 800 796 792 787 783 779 778 778 778 779 780 781 784 788 791 794 797 801 805 807 809 811 813 815 817 819
813 815 813 809 809 808 804 806 809 807 806 803 797 799 804 803 809 807 801 819 841 837 830 828 826 826 825 824 823 821 819 817 815 814 812 810 808 805 801 797 792 790 787 784 783 782 782 782 782 784 787 789 793 797 803 808 811 812 814 815 816 817 818
813 810 810 810 809 808 808 810 811 808 809 810 805 804 803 803 812 810 805 824 842 837 830 829 826 827 826 825 825 823 822 820 817 817 816 814 812 809 805 801 798 795 792 789 789 788 788 788 787 787 788 789 791 795 800 805 809 813 815 817 818 818 818
817 813 811 811 809 811 815 817 815 813 811 810 810 809 805 808 821 817 808 824 839 835 831 830 828 828 828 827 826 824 824 823 820 819 818 817 816 813 810 806 802 799 797 796 796 795 794 793 792 791 791 791 792 793 796 800 804 806 807 811 813 815 816
816 815 815 816 817 818 820 821 819 816 814 812 812 809 805 812 826 823 815 825 836 834 832 833 831 830 831 830 828 826 825 825 823 822 820 819 818 816 814 811 808 806 804 803 802 800 799 798 797 795 795 795 795 795 797 800 802 801 802 806 809 810 813
814 820 826 826 825 823 823 824 821 819 819 817 812 809 810 814 821 826 827 829 833 835 834 835 835 833 834 833 831 829 828 826 825 824 822 821 820 819 818 815 813 811 809 808 807 806 804 802 801 800 799 798 798 799 800 802 802 802 803 806 808 809 811
824 827 830 829 826 826 827 827 824 822 822 819 814 814 819 818 817 828 835 830 832 837 836 836 837 835 836 836 834 833 831 829 828 826 824 823 822 821 819 817 815 814 813 813 812 810 809 807 805 804 802 801 801 801 801 802 803 803 804 805 806 808 809
831 830 829 828 827 827 828 827 825 825 825 824 823 822 825 823 820 828 834 832 833 836 835 836 837 836 837 838 837 835 832 831 829 827 826 824 823 822 821 819 819 818 818 817 816 815 813 811 808 807 805 804 803 802 802 802 802 802 803 804 804 805 806
833 832 831 830 828 828 828 827 827 828 828 828 829 828 827 826 825 828 831 833 835 836 835 836 836 836 837 838 838 836 834 832 831 829 828 827 826 825 824 823 823 822 821 821 819 817 815 813 812 810 808 807 805 804 803 802 802 802 801 801 802 802 803
834 834 832 830 830 831 830 828 828 828 828 828 829 830 828 827 829 830 831 836 841 839 837 836 837 838 838 838 839 840 838 836 833 831 831 829 829 828 827 827 826 824 823 823 821 819 817 816 815 813 811 809 807 806 804 803 802 801 801 800 800 800 800
834 836 834 832 832 831 830 830 830 828 828 828 829 829 828 827 828 830 831 835 839 839 837 837 838 839 840 841 841 841 841 840 837 835 834 833 832 830 829 829 828 826 825 824 822 821 819 818 817 816 814 811 809 807 805 804 803 801 801 800 799 799 799
833 836 835 834 832 830 829 831 833 832 830 830 830 830 830 830 829 828 828 830 834 837 838 838 840 840 841 843 843 842 843 842 840 839 838 836 834 833 831 831 830 829 828 826 825 823 821 820 819 818 816 814 811 808 806 804 803 802 800 799 799 798 798
833 836 837 835 831 829 829 831 833 834 832 831 831 831 831 832 831 829 830 833 837 839 839 840 842 842 842 843 844 844 843 843 842 841 840 838 837 835 834 832 831 831 830 828 827 825 823 822 821 819 818 815 812 809 807 805 803 802 800 799 798 798 797
832 835 835 834 831 829 830 831 832 833 832 831 832 832 832 834 833 833 835 838 840 841 841 842 843 843 841 841 843 843 843 843 843 842 841 840 838 836 835 834 832 832 830 828 827 825 824 823 821 820 818 815 812 810 807 805 803 802 800 799 798 797 797
834 833 831 831 832 832 832 832 832 831 831 831 831 832 835 837 835 835 837 840 841 842 842 843 842 841 840 840 842 843 842 842 842 842 841 840 839 838 836 834 833 832 831 829 827 825 824 823 822 820 818 815 813 810 807 806 803 801 800 799 798 798 797
836 833 831 832 834 835 834 833 833 832 832 832 831 831 836 840 839 837 839 841 842 841 841 842 841 839 838 840 842 842 841 842 842 841 841 840 839 838 837 835 834 833 831 830 829 827 825 823 822 820 818 816 813 810 808 806 803 802 801 800 799 798 797
837 833 833 836 835 833 831 831 833 833 834 835 833 832 836 841 842 840 840 841 841 841 841 841 839 836 835 837 839 840 841 841 841 840 840 839 839 838 837 835 834 832 831 830 828 827 825 823 822 820 817 815 813 810 808 806 804 803 801 800 799 798 797
838 834 833 835 833 829 829 830 832 834 834 836 836 833 835 842 843 841 840 841 841 841 841 840 839 837 835 833 835 839 840 839 839 839 838 838 838 837 836 835 833 832 830 829 827 826 824 822 821 819 817 815 813 810 808 806 804 803 801 800 799 797 796
836 835 833 832 830 828 829 829 830 832 834 837 838 835 835 842 844 841 840 841 841 841 842 841 840 840 839 836 836 838 840 839 839 838 837 837 836 835 834 833 832 831 829 827 826 824 823 822 820 818 817 815 812 810 808 806 805 803 801 800 798 797 795
836 837 835 833 828 825 827 829 829 832 835 837 836 833 835 840 842 840 840 840 840 841 841 841 840 840 840 839 838 838 838 838 837 837 836 835 834 834 833 832 831 829 828 826 825 823 822 821 819 818 816 814 812 809 807 805 804 803 801 799 797 796 795
838 838 838 836 829 823 824 828 830 832 834 834 832 832 836 838 839 840 840 839 840 841 841 840 840 839 838 839 838 837 837 837 836 835 835 834 832 831 831 830 829 828 825 824 823 821 820 819 818 816 815 813 811 809 806 804 803 802 801 799 797 795 793
843 846 846 840 830 823 824 828 831 832 831 830 831 835 838 838 837 838 839 839 839 840 840 839 839 839 838 838 837 837 836 836 835 834 833 832 831 829 828 827 827 826 824 822 820 819 818 817 816 815 814 812 810 808 805 803 802 801 799 797 795 794 792
841 844 841 832 825 823 822 823 825 826 826 828 831 833 834 836 837 837 837 838 838 838 839 839 838 838 838 836 835 835 834 833 833 833 832 831 829 828 826 825 824 824 822 820 817 816 815 815 814 813 812 810 808 807 804 802 800 799 797 796 794 792 790
833 831 827 822 823 825 824 822 822 823 824 827 829 830 831 833 834 835 835 836 836 836 837 837 837 837 836 835 834 833 831 831 831 830 829 829 827 826 825 823 822 821 820 818 815 813 812 812 811 810 809 808 806 804 803 801 799 797 796 794 792 790 789
830 825 822 823 825 824 823 822 823 824 824 826 827 828 829 830 831 832 833 833 833 834 835 835 835 835 834 833 832 831 830 828 827 827 826 826 824 823 822 821 819 818 816 815 813 810 808 808 809 807 806 806 804 801 800 799 797 796 794 792 790 788 787
828 823 821 823 823 821 821 821 821 822 824 824 826 827 827 827 829 830 831 831 832 833 833 833 833 832 831 831 830 829 828 826 825 824 823 822 821 820 819 818 817 816 814 811 810 808 805 804 805 804 803 802 801 799 797 796 795 794 792 791 789 787 785
825 820 819 822 823 821 821 821 820 820 820 821 824 825 825 826 827 828 829 830 831 831 831 831 831 830 829 829 828 826 825 824 823 822 820 819 818 816 815 815 814 812 811 808 806 805 802 800 801 801 799 798 797 796 795 793 792 791 790 788 786 785 784
823 819 817 820 822 821 819 819 819 817 817 818 821 822 824 825 826 826 827 828 829 829 829 829 829 828 827 826 825 824 822 821 820 819 817 815 814 813 812 811 810 809 808 805 803 801 798 796 797 797 796 794 794 793 792 791 790 788 786 785 784 783 782
819 814 811 813 817 814 811 812 814 814 815 817 819 820 822 823 823 824 825 825 826 827 827 827 827 827 825 824 823 822 820 819 817 816 814 812 811 810 809 808 806 805 804 803 800 797 795 793 792 792 791 790 790 789 789 788 787 786 784 783 781 780 779
809 806 805 808 811 810 807 808 811 811 813 815 817 817 819 819 820 821 822 823 823 824 824 825 825 824 823 822 821 819 818 816 815 813 811 809 807 806 806 804 803 801 800 799 797 794 791 789 788 786 786 785 785 785 785 785 784 783 782 781 779 777 776
804 804 803 806 809 807 806 807 809 810 812 813 814 815 816 816 818 819 820 821 821 821 821 822 822 822 821 820 819 817 815 813 812 810 808 806 804 803 802 801 799 798 796 795 793 790 788 786 784 782 781 780 780 781 781 781 781 780 779 778 776 775 774
802 801 801 805 806 805 806 808 809 810 811 811 812 813 814 815 816 817 818 819 819 819 819 819 819 819 818 817 816 814 812 810 809 807 805 803 801 799 798 797 795 794 792 790 788 786 785 782 780 778 776 775 775 776 776 776 776 775 774 774 772 771 771